"Pseudo-MPEC" for P116e2F

Created 2020 Sep 19 15:07:31 UT using Find_Orb

Click here for an explanation of pseudo-MPECs

 
 Astrometry: 
     P116e2F  C2020 09 144iJ:a(7OKMx7+c2Wt'dEqfR;DBD441IX5c?=UnB(F44c4tb'^aS$F52
     P116e2F  C2020 09 149nI6l7J#:(9$!03o-;A)Y/)TKe82q%2@;XW@[rNP$9csXiubI*k#F52
     P116e2F  C2020 09 15/0oANfF:`rr\.j^6tb)76)oY$W\b#9q3c8)9VjU)bk7,)'Zl1q\:F51
     P116e2F  C2020 09 15fosxR[!kShTE*^8;(GDj85PBp0h''$vGsoE%*q]CK]McuBkw@55/F51
     P116e2F  C2020 09 15e1OSa01]AstrometryX+,W072[NUa1\Ja%p^y+M/K9iTFPeXhw=tF51
     P116e2F  C2020 09 16.'e@c:OJ%2N@kDXj*`S/yvcE'(Wredacted;o%tChc.eW^i\JqW;F51
     P116e2F  C2020 09 165_um/NiLNJU+?4=\e!]#jsM;PB1f'1;NtjrGBIb6)Yme_X@v[0o.F51
     P116e2F  C2020 09 16F*7fclick1I[:CK2DCTFmp7PO*phb6dw!Z_'ZiFTg'ne-/P5Vw+GF51
     P116e2F  C2020 09 16N5QD#mZhD5H)(r[(LHcugpUw!j-xvTLe_Jh,_VPtXY7`+rB1t,,bF51
     P116e2F  C2020 09 17Vb9W,FV\T\G9a6yFlOtKbeeG7bX2n?NJ[g\gg8JANq45-35T0YXOF51
     P116e2F  C2020 09 17xYg`7ST0[YkH;Yi-]0[.xKpe`J[J]m[LAB=tPNUc?WXRFhere?i0F51
     P116e2F  C2020 09 17Ux.ns@r.kU!EjMffj`qoZ8LmDL24\AfDGZ=h,%3a2+Sxrw8ia#.3F51
     P116e2F  C2020 09 18pR_]@u$,?f6Hr;53AG?NykKkZAR7O?b($yHS#Ur]u.+HIt[DATrtF51
     P116e2F  C2020 09 18ECeYeqq:63vn2yGi.?forM)M2QPagt(AlWgjv/nK#*^SpS`atgD!F51
     P116e2F  C2020 09 18SvR:=w^sT%=PLDQOexplanation)j)\`66w0gv2ALd5ij2'=f-4qF51

Station data:
(F51) Pan-STARRS 1, Haleakala  (N20.707235 W156.255910)  US/Hawaii.
   Observers N. Primak, A. Schultz, S. Watters, J. Thiel, T. Goggia. Measurer
   PS1 Science Consortium. 1.8-m Ritchey-Chrétien + CCD.
(F52) Pan-STARRS 2, Haleakala  (N20.707384 W156.255910)  US/Hawaii. 1.8-m
   Ritchey-Chrétien + CCD.

Orbital elements:  P116e2F
   Perihelion 2020 May 3.609627 +/- 4.76 TT = 14:37:51 (JD 2458973.109627)
Epoch 2020 Sep 18.0 TT = JDT 2459110.5   Earth MOID: 0.6020   AutoNEOCP
M  32.09784563 +/- 2.2              (J2000 ecliptic)
n   0.23362514 +/- 0.00889          Peri.  250.66936 +/- 0.25
a   2.61089653 +/- 0.0662           Node    43.73546 +/- 0.7
e   0.4526107 +/- 0.0223            Incl.   27.40376 +/- 0.9
P   4.22                   H 20.2   G  0.15   U  9.6  
q 1.42917662 +/- 0.0236    Q 3.79261644 +/- 0.161
From 15 observations 2020 Sept. 14-18; mean residual 0".08
Residuals in arcseconds: 
200914 F52  .05+  .09+    200916 F51  .02-  .05+    200917 F51  .05-  .06-    
200914 F52  .09-  .14-    200916 F51  .08-  .10+    200917 F51  .06+  .09-    
200915 F51  .05+  .04+    200916 F51  .09-  .20-    200918 F51  .01+  .05+    
200915 F51  .05+  .13+    200916 F51  .15+  .01+    200918 F51  .03+  .03-    
200915 F51  .02+  .01+    200917 F51  .11-  .03-    200918 F51  .01+  .07+    

Ephemerides (geocentric):
Date (UTC) HH   RA              Dec         delta   r     elong  mag " sig PA
---- -- -- --  -------------   -----------  ------ ------ -----  --- ---- ---
2020 09 19 15  02 46 38.217   -10 20 39.11  1.0577 1.9040 134.8 22.8 .307   7
2020 09 19 16  02 46 35.267   -10 20 25.61  1.0576 1.9042 134.9 22.8 .321   6
2020 09 19 17  02 46 32.313   -10 20 12.09  1.0575 1.9044 134.9 22.8 .334   5
2020 09 19 18  02 46 29.355   -10 19 58.55  1.0574 1.9046 134.9 22.8 .348   5
2020 09 19 19  02 46 26.392   -10 19 45.01  1.0573 1.9048 135.0 22.8 .362   4
2020 09 19 20  02 46 23.425   -10 19 31.45  1.0573 1.9051 135.0 22.8 .376   3
2020 09 19 21  02 46 20.454   -10 19 17.87  1.0572 1.9053 135.1 22.8 .391   3
2020 09 19 22  02 46 17.478   -10 19 04.29  1.0571 1.9055 135.1 22.8 .405   2
2020 09 19 23  02 46 14.497   -10 18 50.69  1.0570 1.9057 135.2 22.8 .420   2
2020 09 20 00  02 46 11.513   -10 18 37.07  1.0569 1.9059 135.2 22.8 .435   1
2020 09 20 01  02 46 08.523   -10 18 23.45  1.0568 1.9062 135.3 22.8 .451   0
2020 09 20 02  02 46 05.530   -10 18 09.81  1.0567 1.9064 135.3 22.8 .466   0
2020 09 20 03  02 46 02.532   -10 17 56.15  1.0567 1.9066 135.4 22.8 .482 179
2020 09 20 04  02 45 59.529   -10 17 42.49  1.0566 1.9068 135.4 22.8 .498 179
2020 09 20 05  02 45 56.522   -10 17 28.81  1.0565 1.9070 135.4 22.8 .514 178
2020 09 20 06  02 45 53.511   -10 17 15.11  1.0564 1.9073 135.5 22.8 .531 178
2020 09 20 07  02 45 50.496   -10 17 01.41  1.0563 1.9075 135.5 22.8 .547 177
2020 09 20 08  02 45 47.476   -10 16 47.68  1.0562 1.9077 135.6 22.8 .564 177
2020 09 20 09  02 45 44.451   -10 16 33.95  1.0562 1.9079 135.6 22.8 .582 176
2020 09 20 10  02 45 41.423   -10 16 20.20  1.0561 1.9081 135.7 22.8 .599 176
2020 09 20 11  02 45 38.390   -10 16 06.44  1.0560 1.9084 135.7 22.8 .617 175
2020 09 20 12  02 45 35.352   -10 15 52.66  1.0559 1.9086 135.8 22.8 .634 175
2020 09 20 13  02 45 32.310   -10 15 38.87  1.0558 1.9088 135.8 22.8 .652 175
2020 09 20 14  02 45 29.264   -10 15 25.07  1.0558 1.9090 135.9 22.8 .671 174
2020 09 20 15  02 45 26.214   -10 15 11.25  1.0557 1.9093 135.9 22.8 .689 174
2020 09 20 16  02 45 23.159   -10 14 57.42  1.0556 1.9095 135.9 22.8 .708 173
2020 09 20 17  02 45 20.100   -10 14 43.58  1.0555 1.9097 136.0 22.8 .727 173
2020 09 20 18  02 45 17.036   -10 14 29.72  1.0554 1.9099 136.0 22.8 .747 173
2020 09 20 19  02 45 13.968   -10 14 15.85  1.0554 1.9101 136.1 22.8 .766 172
2020 09 20 20  02 45 10.896   -10 14 01.96  1.0553 1.9104 136.1 22.8 .786 172
2020 09 20 21  02 45 07.819   -10 13 48.06  1.0552 1.9106 136.2 22.8 .806 171
2020 09 20 22  02 45 04.739   -10 13 34.14  1.0551 1.9108 136.2 22.8 .826 171
2020 09 20 23  02 45 01.654   -10 13 20.21  1.0551 1.9110 136.3 22.8 .847 171
2020 09 21 00  02 44 58.564   -10 13 06.27  1.0550 1.9112 136.3 22.8 .868 170
2020 09 21 01  02 44 55.470   -10 12 52.31  1.0549 1.9115 136.4 22.8 .889 170
2020 09 21 02  02 44 52.372   -10 12 38.34  1.0548 1.9117 136.4 22.8 .910 169
2020 09 21 03  02 44 49.270   -10 12 24.36  1.0547 1.9119 136.4 22.8 .932 169
2020 09 21 04  02 44 46.163   -10 12 10.36  1.0547 1.9121 136.5 22.8 .954 169
2020 09 21 05  02 44 43.053   -10 11 56.34  1.0546 1.9123 136.5 22.8 .976 168
2020 09 21 06  02 44 39.937   -10 11 42.32  1.0545 1.9126 136.6 22.8 1.00 168
2020 09 21 07  02 44 36.818   -10 11 28.27  1.0544 1.9128 136.6 22.7 1.02 168
2020 09 21 08  02 44 33.694   -10 11 14.22  1.0544 1.9130 136.7 22.7 1.04 167
2020 09 21 09  02 44 30.566   -10 11 00.14  1.0543 1.9132 136.7 22.7 1.07 167
2020 09 21 10  02 44 27.434   -10 10 46.06  1.0542 1.9135 136.8 22.7 1.09 167
2020 09 21 11  02 44 24.298   -10 10 31.96  1.0541 1.9137 136.8 22.7 1.12 166
2020 09 21 12  02 44 21.157   -10 10 17.84  1.0541 1.9139 136.9 22.7 1.14 166
2020 09 21 13  02 44 18.012   -10 10 03.72  1.0540 1.9141 136.9 22.7 1.16 166
2020 09 21 14  02 44 14.863   -10 09 49.57  1.0539 1.9143 136.9 22.7 1.19 165